User: anonymous   Login
Location: Ciserano
(45.5833°N, 9.6000°E)
Time: 16:50:13
(UTC+00:00)
Language:

Aureole 2 Rocket - Orbit

View from above orbital plane
View from above orbital plane
View from above satellite
View from above satellite

Ground track
Ground track

The orbit data is extracted from the following two-line orbital elements,

1  7004U 73107B   21059.03712817  .00042080  23252-5  19372-3 0  9993
2  7004  73.9133 292.6989 0065999 174.2113 185.9894 15.80297011447352
Epoch (UTC): 28 February 2021 00:53:27
Eccentricity: 0.0065999
inclination: 73.9133°
perigee height: 285 km
apogee height: 374 km
right ascension of ascending node: 292.6989°
argument of perigee: 174.2113°
revolutions per day: 15.80297011
mean anomaly at epoch: 185.9894°
orbit number at epoch: 44735

The dashed part of the orbit path shows where the satellite is in the earth's shadow,  

DLR